Showing default

IRIDIUM 122, 42957

Orbit data source: Space-Track

IRIDIUM 122, 42957 is a payload satellite owned by Iridium (US) in LEO that was launched on Mon, 09 Oct 2017 UTC via an FALCON 9 launch vehicle from the Air Force Western Test Range (AFWTR). Payload-class satellites include a variety of spacecraft equipped with specific instruments for various scientific and technological missions. These include communications satellites like Starlink; space stations such as the ISS; scientific satellites like the Hubble; Earth observation satellites from companies like Planet Labs, Umbra, and HawkEye 360; GPS; miniature CubeSats for education and research; and military/defense satellites.

Loading next visibility...
Identifier
42957, 2017-061C
Orbit
LEO
Country
Flag of USUS
Related business
Manufacturer
OATK SSG Gilbert
Mission
Operational Commercial Communications
Bus & Motor
ELITEBUS, Unknown motor
Mass
860 kg wet, 700 kg dry
Launch date (UTC)
2017-10-09 (8 years ago)
Launch vehicle
FALCON 9
Launch site
Air Force Western Test Range (AFWTR)
Object type
Payload
Rocket body
Debris
Shape & HBR
Trap Box + 2 Pan, 4.7 m
Radar Cross Section
14.423 m², Large (>1 m²)

Expand to show TLE details & history
Last TLE update: 13 hours ago

TLE from 13 hours ago
0 IRIDIUM 122
1 42957U 17061C   25258.73345567  .00000155  00000-0  48189-4 0  9999
2 42957  86.3999 139.9449 0002202  86.3113 273.8334 14.34218214415448
Epoch: 2025-09-15T17:36Z
TLE epoch observation values (Epoch: 2025-09-15T17:36:10.569Z)
Latitude
-0.00011°
Longitude
-119.03302°
Altitude
780.612 km
Speed
7.464 km/s
True Right ascension
09h 19m 46s
True Declination
0° 00' 00"
Sunlit
Object was in daylight at epoch
Visualization orbit readout
Latitude
Unknown
Longitude
Unknown
Altitude
Unknown
Speed
Unknown
Apparent Right ascension
Unknown
Apparent Declination
Unknown
Sunlit
N/A
Visualization observer readout
Local Sidereal Time
23:04:28
Azimuth
Unknown
Elevation
Unknown
Doppler factor
Unknown
Orbital elements
Apogee altitude
776.205 km
Perigee altitude
773.055 km
Semi-major axis
7,152.767 km
Eccentricity
0.00022
Inclination
86.3999°
RAAN
139.9449°
Arg. of periapsis
86.3113°
True anomaly
273.80822°
Mean anomaly
273.8334°
Eccentric anomaly
273.82081°
Mean motion
3.58783 °/min
Orbital period
100.34 mins
BSTAR
0.000048189
Loading maneuver chart data...
Computing Atmospheric mass density...
Loading historical data...
Loading historical data...
Loading historical data...
Loading historical data...
Loading historical data...
Loading historical data...
Loading historical data...

Documentation

Showing up to 5 results
|